Location: Ottawa
(45.4167°N, 75.7000°W)
Time: 06:17:30
(UTC-05:00)

Envisat - Pass Details

Date: 14 October 2017
Orbit: 764 x 766 km, 98.2° (Epoch: 16 December)

Event Time Altitude Azimuth Distance (km) Brightness Sun altitude
Exits shadow 20:20:04 51° 87° (E) 957 3.1 -22.0°
Maximum altitude 20:20:26 53° 71° (ENE) 944 3.1 -22.1°
Drops below altitude 10° 20:25:23 10° 356° (N) 2,316 5.7 -22.9°
Sets 20:27:45 0° 351° (N) 3,247 6.5 -23.3°
